Location: Sternwarte_Laufen
(47.9344°N, 12.9346°E)
Time: 07:50:54
(UTC+02:00)

A-11 Canister half - All Passes

Search period start: 08 June 2026 00:00
Search period end: 18 June 2026 00:00
Orbit: 1515 x 1685 km, 47.2° (Epoch: 7 June)

Date Brightness Start Highest point End Pass type
(mag) Time Alt. Az. Time Alt. Az. Time Alt. Az.
8 Jun - 14:19:02 10° S 14:26:26 24° SE 14:33:41 10° E daylight
8 Jun - 16:20:17 10° SW 16:30:00 59° SSE 16:39:23 10° ENE daylight
8 Jun - 18:24:47 10° W 18:34:42 86° S 18:44:14 10° E daylight
8 Jun - 20:29:56 10° W 20:39:36 74° SSW 20:48:55 10° ESE daylight
8 Jun - 22:35:12 10° WNW 22:43:35 37° SW 22:51:46 10° SSE visible
9 Jun - 13:56:20 10° S 14:03:29 23° SE 14:10:29 10° E daylight
9 Jun - 15:57:16 10° SW 16:06:58 57° SSE 16:16:20 10° ENE daylight
9 Jun - 18:01:41 10° W 18:11:38 85° S 18:21:12 10° E daylight
9 Jun - 20:06:51 10° W 20:16:35 76° SSW 20:25:56 10° ESE daylight
9 Jun - 22:12:05 10° WNW 22:20:37 39° SW 22:28:56 10° SSE visible
10 Jun - 13:33:41 10° S 13:40:32 21° SE 13:47:15 10° E daylight
10 Jun - 15:34:17 10° SW 15:43:57 55° SSE 15:53:19 10° ENE daylight
10 Jun - 17:38:36 10° WSW 17:48:34 85° S 17:58:10 10° E daylight
10 Jun - 19:43:47 10° W 19:53:32 78° SSW 20:02:56 10° ESE daylight
10 Jun - 21:48:58 10° WNW 21:57:39 41° SW 22:06:07 10° SSE visible
10 Jun - 23:57:58 10° WSW 00:00:20 11° WSW 00:02:43 10° SW visible
11 Jun - 13:11:04 10° S 13:17:35 20° SE 13:24:00 10° E daylight
11 Jun - 15:11:19 10° SW 15:20:55 53° SSE 15:30:15 10° ENE daylight
11 Jun - 17:15:31 10° WSW 17:25:30 84° S 17:35:08 10° E daylight
11 Jun - 19:20:41 10° W 19:30:30 79° SSW 19:39:56 10° ESE daylight
11 Jun - 21:25:51 10° WNW 21:34:41 43° SW 21:43:15 10° SSE daylight
11 Jun - 23:34:01 10° W 23:37:27 12° WSW 23:40:52 10° SW visible
12 Jun - 12:48:30 10° SSE 12:54:39 18° SE 13:00:42 10° E daylight
12 Jun - 14:48:21 10° SW 14:57:54 51° SSE 15:07:12 10° ENE daylight
12 Jun - 16:52:25 10° WSW 17:02:26 83° S 17:12:05 10° E daylight
12 Jun - 18:57:35 10° W 19:07:27 80° SSW 19:16:55 10° ESE daylight
12 Jun - 21:02:45 10° WNW 21:11:43 45° SW 21:20:24 10° SSE daylight
12 Jun - 23:10:21 10° W 23:14:34 14° WSW 23:18:44 10° SSW visible
13 Jun - 12:25:59 10° SSE 12:31:43 17° SE 12:37:22 10° E daylight
13 Jun - 14:25:23 10° SW 14:34:53 49° SE 14:44:08 10° ENE daylight
13 Jun - 16:29:20 10° WSW 16:39:23 82° SSE 16:49:03 10° E daylight
13 Jun - 18:34:30 10° W 18:44:24 82° SSW 18:53:54 10° ESE daylight
13 Jun - 20:39:39 10° WNW 20:48:44 47° SW 20:57:31 10° SE daylight
13 Jun - 22:46:50 10° W 22:51:40 15° SW 22:56:26 10° SSW visible
14 Jun - 12:03:33 10° SSE 12:08:47 16° SE 12:13:57 10° E daylight
14 Jun - 14:02:26 10° SSW 14:11:53 47° SE 14:21:05 10° ENE daylight
14 Jun - 16:06:15 10° WSW 16:16:18 81° SSE 16:26:01 10° E daylight
14 Jun - 18:11:25 10° W 18:21:20 83° S 18:30:53 10° ESE daylight
14 Jun - 20:16:33 10° WNW 20:25:45 50° SW 20:34:38 10° SE daylight
14 Jun - 22:23:24 10° W 22:28:46 17° SW 22:34:03 10° SSW visible
15 Jun - 11:41:12 10° SSE 11:45:51 14° ESE 11:50:27 10° E daylight
15 Jun - 13:39:31 10° SSW 13:48:52 45° SE 13:58:00 10° ENE daylight
15 Jun - 15:43:10 10° WSW 15:53:14 80° SSE 16:02:58 10° E daylight
15 Jun - 17:48:18 10° W 17:58:16 84° S 18:07:51 10° ESE daylight
15 Jun - 19:53:27 10° WNW 20:02:45 52° SSW 20:11:44 10° SE daylight
15 Jun - 22:00:01 10° W 22:05:51 18° SW 22:11:36 10° SSW visible
16 Jun - 11:18:59 10° SE 11:22:55 13° ESE 11:26:51 10° E daylight
16 Jun - 13:16:36 10° SSW 13:25:52 43° SE 13:34:56 10° ENE daylight
16 Jun - 15:20:05 10° WSW 15:30:10 78° SSE 15:39:56 10° E daylight
16 Jun - 17:25:12 10° W 17:35:12 85° S 17:44:50 10° ESE daylight
16 Jun - 19:30:21 10° WNW 19:39:45 54° SSW 19:48:49 10° SE daylight
16 Jun - 21:36:42 10° W 21:42:57 20° SW 21:49:05 10° S visible
17 Jun - 10:57:00 10° SE 11:00:01 12° ESE 11:03:01 10° ESE daylight
17 Jun - 12:53:41 10° SSW 13:02:51 41° SE 13:11:51 10° ENE daylight
17 Jun - 14:57:01 10° WSW 15:07:06 77° SSE 15:16:53 10° E daylight
17 Jun - 17:02:06 10° W 17:12:08 85° S 17:21:48 10° E daylight
17 Jun - 19:07:15 10° WNW 19:16:45 56° SSW 19:25:54 10° SE daylight
17 Jun - 21:13:25 10° W 21:20:02 21° SW 21:26:30 10° S daylight
